Theta_e
359 357 344 339 339 342 345 349 347 343 322 325 330 330 329 330 334 336 338 339 338 338 336 330 324 325 325 326 326 328 331 332 334 336 336 335 333 333 333 333 330 341 332
358 355 340 338 339 344 347 349 346 329 325 328 331 331 333 333 333 339 341 341 336 335 333 327 326 325 325 325 325 326 329 330 332 333 335 340 339 331 330 331 329 340 330
358 352 345 337 340 345 346 346 340 326 329 331 332 332 336 336 337 339 341 338 330 330 328 327 327 326 327 327 332 340 342 343 344 343 344 349 348 346 339 331 331 330 331
356 350 345 337 338 344 346 344 334 332 333 334 333 335 336 336 336 335 332 327 327 329 330 330 330 334 340 342 342 342 342 340 340 339 348 345 345 345 343 343 335 333 333
354 347 346 336 335 339 342 340 335 337 337 336 334 334 334 334 332 327 327 328 331 333 336 339 339 339 340 340 340 340 339 339 339 343 345 345 343 342 340 341 345 343 341
351 347 345 333 333 335 338 337 337 338 338 334 334 333 331 329 327 328 332 335 336 341 343 341 340 338 339 339 338 338 339 338 337 343 343 342 342 340 332 332 339 342 340
350 348 343 331 330 332 335 337 337 337 335 333 333 333 332 327 328 334 336 338 340 342 342 342 341 341 340 340 339 339 337 335 337 337 338 338 337 335 327 327 327 331 339
350 348 345 335 329 329 330 331 333 332 331 332 332 332 333 330 327 330 335 337 338 338 338 337 338 338 337 336 336 334 330 327 330 333 336 335 335 334 333 333 333 332 333
351 348 345 342 337 326 326 327 327 329 330 332 333 333 329 327 327 327 327 327 328 330 330 329 330 330 330 328 327 325 324 325 332 332 333 335 337 337 337 336 336 336 336
352 349 345 343 340 338 337 327 327 328 329 331 334 334 332 330 329 327 327 328 327 327 327 327 327 326 326 325 324 324 324 324 335 332 330 336 338 339 340 341 343 342 342
353 350 346 343 342 339 338 338 332 331 333 335 338 335 332 338 337 333 337 330 325 326 326 325 325 327 332 333 334 332 327 335 335 334 335 337 338 337 340 343 341 341 343
353 351 348 345 344 342 340 341 340 343 342 343 342 341 339 340 340 339 336 329 329 328 328 337 339 340 343 341 339 338 338 337 338 337 337 338 338 337 338 338 339 341 342
351 351 349 348 346 345 343 340 340 339 341 342 343 343 342 339 340 338 338 337 338 339 342 344 345 344 344 345 343 342 341 341 339 339 339 340 339 337 339 342 343 342 340
352 352 351 350 348 345 346 345 343 343 342 341 341 343 342 340 341 340 337 337 342 344 347 346 344 345 346 345 344 343 342 341 340 340 340 341 340 341 342 342 342 340 337
352 352 352 351 349 347 348 346 346 345 344 343 344 343 340 338 340 339 338 337 337 345 346 346 347 348 348 346 345 346 345 345 344 343 341 342 343 343 337 337 341 338 339
353 353 352 351 350 350 347 347 348 347 347 347 346 345 344 340 341 338 337 335 335 340 343 346 350 350 350 350 347 346 345 344 343 344 344 343 344 341 339 335 337 338 339
352 353 353 352 351 351 350 349 347 348 347 348 346 347 344 343 342 341 340 340 340 343 346 351 351 350 350 348 347 346 344 343 343 343 345 344 343 343 341 340 337 338 337
352 352 352 351 351 351 352 350 348 348 348 346 343 342 343 342 342 344 346 346 344 347 348 349 347 350 349 347 346 345 344 345 345 346 345 344 343 341 341 337 334 331 327
351 351 350 349 350 350 352 350 350 350 344 342 342 344 345 344 344 345 345 346 347 346 342 343 346 347 347 346 344 343 343 343 343 344 343 343 340 337 333 326 324 318 323
350 349 348 348 349 351 350 348 344 342 340 346 351 351 352 350 350 349 346 341 333 334 334 332 336 342 345 344 343 341 340 343 342 341 338 338 331 323 317 318 319 320 324
350 348 348 348 350 349 346 340 340 341 348 349 348 348 347 346 343 342 341 333 332 331 333 332 338 343 343 342 340 339 338 341 343 330 335 331 324 316 316 318 320 319 320
348 348 348 348 348 346 345 345 350 350 350 347 345 341 341 340 343 340 342 334 333 334 334 336 340 341 341 339 338 333 335 332 338 325 326 323 320 315 316 317 318 318 317
347 347 347 347 347 345 349 352 350 348 346 346 344 341 341 337 333 335 335 336 338 340 338 333 332 333 334 330 330 326 330 329 323 322 320 318 317 317 317 317 317 317 315
346 346 346 346 347 347 348 349 349 349 348 344 342 338 335 334 335 335 332 331 328 328 327 325 323 322 322 321 319 318 320 320 323 319 317 316 317 317 317 317 316 315 315
347 346 346 346 347 347 347 347 348 346 345 344 341 335 330 328 326 325 324 323 321 320 316 315 317 319 318 317 316 316 317 318 317 317 320 319 316 317 316 317 316 315 314
344 344 345 347 348 349 350 349 347 345 343 336 334 331 327 323 321 320 318 317 316 316 317 317 317 317 317 317 316 315 315 316 316 317 319 318 317 316 317 316 315 314 312
Wind_Speed
22 26 29 25 23 22 25 32 29 26 26 25 26 24 22 21 21 19 18 16 13 11 10 10 10 10 10 10 9 9 9 8 6 5 4 4 4 2 2 1 2 2 6
26 27 31 27 24 25 26 32 29 27 27 26 24 23 21 19 18 17 16 14 12 10 9 9 9 9 9 9 9 8 7 6 4 3 3 5 6 5 3 3 2 5 7
26 27 29 29 26 27 30 30 28 27 26 24 23 21 18 17 16 15 15 13 11 10 9 9 8 8 8 8 7 5 4 3 3 4 6 6 5 10 8 7 7 7 7
26 27 26 30 28 28 30 29 28 26 24 22 20 19 17 16 15 14 13 12 11 10 9 8 7 6 5 5 4 2 1 3 5 6 7 7 8 10 12 11 10 10 10
25 26 25 31 29 28 28 29 28 26 23 20 18 17 16 14 14 13 12 11 10 9 8 7 6 4 3 2 0 2 3 5 7 9 8 7 8 8 13 12 12 12 13
27 24 26 31 29 28 28 28 26 25 22 20 18 15 14 13 12 12 11 10 9 7 6 5 4 3 2 2 4 5 7 9 10 11 9 10 11 12 15 12 13 14 16
27 24 27 30 29 28 28 26 25 23 22 20 17 14 12 11 11 11 10 9 8 6 4 3 2 2 4 5 6 8 10 12 11 13 13 13 13 16 15 14 14 15 17
27 25 25 27 27 26 26 25 24 23 21 19 15 13 11 10 9 9 8 7 6 4 3 2 4 5 7 9 10 12 13 14 13 14 13 12 13 15 14 14 14 15 17
26 27 25 22 23 24 24 24 23 22 20 17 15 12 10 8 8 7 6 6 4 3 4 5 6 8 9 11 12 12 14 14 13 14 13 12 9 13 12 11 13 15 16
26 25 25 23 20 20 19 22 21 20 18 16 13 11 10 8 7 5 3 2 3 4 4 6 7 9 10 11 12 14 15 16 13 13 13 12 13 13 14 14 15 16 17
25 25 25 25 21 19 18 19 19 18 16 15 11 10 9 6 5 3 5 5 3 4 5 6 7 9 11 12 13 14 15 12 13 13 14 13 15 16 15 15 17 18 19
28 25 25 25 23 19 17 18 16 15 13 11 9 9 7 6 5 4 2 3 4 7 7 9 9 11 10 10 11 13 11 13 15 15 15 14 18 19 18 20 21 22 22
29 26 25 24 24 20 18 18 16 15 13 12 10 8 6 4 3 2 2 3 5 8 7 8 10 10 11 12 13 14 15 17 17 17 16 17 19 19 19 18 16 16 19
28 27 26 24 24 22 18 17 16 14 13 11 10 8 6 4 3 2 3 4 5 6 8 9 11 12 14 14 15 15 16 17 18 18 18 16 20 20 16 14 14 16 16
28 28 26 25 23 22 19 16 15 13 12 10 8 7 4 3 3 3 3 4 6 7 9 12 13 13 15 16 16 17 18 17 17 17 17 18 16 17 17 17 14 16 17
25 25 25 23 20 19 17 16 14 12 10 8 6 6 6 5 3 3 3 4 6 7 10 12 14 15 16 18 19 18 18 17 17 16 17 19 14 15 16 14 13 15 14
25 24 24 21 18 17 15 14 12 11 8 6 5 5 5 4 3 3 1 2 4 7 10 12 16 17 19 20 21 19 19 18 17 18 18 16 16 12 15 13 15 13 13
24 23 21 19 18 17 15 13 10 8 7 5 4 4 4 3 2 0 1 2 4 5 10 16 19 19 18 16 23 21 22 19 17 15 12 11 12 13 10 16 16 15 18
23 22 21 19 19 18 16 14 11 9 8 6 5 5 4 4 3 3 2 4 8 6 8 15 17 19 21 19 21 25 19 15 11 7 7 9 10 13 13 16 19 16 17
23 21 19 18 18 18 16 13 12 11 10 8 8 8 8 6 6 7 8 8 5 9 11 14 22 20 21 20 20 21 17 8 6 8 11 9 12 15 18 19 19 16 13
22 22 21 19 19 19 18 16 15 15 13 11 11 12 12 10 9 7 8 6 7 9 8 3 16 20 19 15 19 17 13 3 1 15 10 12 14 19 17 16 15 16 16
22 21 21 20 20 17 16 15 15 16 14 13 10 8 5 3 4 4 1 3 7 4 2 6 9 15 15 9 13 15 6 11 2 15 13 12 17 18 17 15 15 14 17
21 21 21 21 21 18 17 17 18 16 14 11 9 6 3 3 2 4 6 3 4 7 8 6 6 8 11 9 10 9 6 6 16 7 11 15 20 17 17 16 16 15 20
22 20 20 21 20 19 18 18 19 17 13 8 9 7 8 10 10 9 8 10 11 9 15 8 6 8 11 10 11 11 7 8 5 7 16 16 20 16 17 17 19 19 21
23 23 22 21 20 19 17 16 16 12 9 10 9 11 12 13 12 13 10 13 11 12 12 9 9 9 8 8 8 9 7 4 4 7 8 17 20 14 16 17 18 22 23
25 22 25 21 19 17 16 13 11 12 11 11 12 13 11 11 12 12 15 12 13 13 9 8 7 9 7 7 6 8 8 7 8 8 8 13 17 17 14 13 22 20 25
Wind_Direction
160 162 167 168 170 173 174 174 171 165 162 158 153 155 154 150 149 147 148 147 148 146 139 136 135 136 134 130 125 121 121 114 104 88 62 48 35 3 351 321 329 313 290
157 160 166 167 169 170 171 171 169 166 162 159 157 157 155 153 155 155 154 152 154 149 143 137 133 131 131 129 126 122 113 100 83 59 13 347 344 344 314 300 275 251 273
156 159 165 167 168 167 168 171 168 165 162 161 160 158 158 155 158 158 157 156 155 152 145 142 140 139 134 130 124 106 91 58 13 338 343 296 306 304 309 297 288 275 272
156 159 165 168 167 170 172 173 168 165 163 164 163 160 160 157 159 159 160 158 155 148 141 136 131 130 124 118 114 97 30 344 324 331 313 315 318 299 306 290 288 286 286
157 157 166 170 168 171 175 176 170 166 167 168 165 160 158 158 159 159 158 152 145 139 134 127 123 127 136 139 244 313 313 309 309 312 303 305 310 303 307 293 276 287 285
157 159 173 172 172 171 176 177 172 169 170 169 165 159 154 155 155 153 149 142 140 138 133 132 137 159 206 266 293 298 302 304 307 297 297 298 299 285 299 299 292 270 263
158 160 163 173 174 173 176 175 173 173 172 168 164 159 156 154 155 153 151 149 149 155 160 170 201 237 263 279 285 291 296 300 304 297 296 295 296 290 298 295 293 289 281
157 158 162 174 172 173 176 173 173 173 170 167 165 160 156 155 156 161 165 169 177 185 205 256 281 285 287 288 291 295 296 298 297 289 286 289 289 303 306 303 298 296 292
159 157 158 164 169 170 170 168 168 167 167 163 160 152 149 148 154 164 178 193 203 225 251 263 275 282 286 288 288 286 286 288 289 287 287 288 287 302 303 298 293 292 290
164 161 160 161 164 161 163 167 168 165 163 159 156 152 150 153 162 174 172 246 230 250 269 284 291 294 294 293 293 293 296 298 286 288 282 278 288 302 303 296 298 298 298
169 166 164 160 164 161 160 164 164 160 160 156 154 158 146 161 162 194 218 242 264 278 284 288 296 301 306 306 312 311 304 292 293 290 287 278 291 309 307 306 304 305 301
170 173 169 165 161 160 158 161 157 160 157 158 161 169 166 169 168 171 214 283 304 309 307 322 320 318 325 305 302 308 298 297 296 293 292 290 300 313 315 314 316 318 311
171 174 173 168 163 160 161 158 161 163 166 173 174 177 172 175 178 222 266 310 313 310 316 313 311 307 306 305 303 303 303 302 301 300 295 300 309 320 321 325 331 331 325
173 177 175 172 164 166 165 165 166 163 167 169 176 179 180 192 213 251 285 310 311 316 312 311 310 310 308 307 305 302 299 300 299 301 298 304 312 320 324 322 316 320 317
177 179 177 177 169 165 167 166 169 167 168 169 165 175 179 194 226 256 278 298 305 318 324 323 320 317 314 309 304 304 303 303 301 298 301 305 312 321 325 315 310 319 316
180 180 175 178 164 167 167 169 168 169 168 162 168 173 181 186 206 240 283 295 304 321 325 324 323 318 312 312 310 311 311 306 303 303 305 306 311 331 333 338 320 320 325
180 176 172 174 163 172 170 167 170 174 169 167 172 174 186 181 207 217 268 360 342 337 332 325 324 323 325 320 317 318 311 308 304 303 307 310 314 323 337 333 338 344 337
175 171 165 163 169 171 170 166 169 162 155 153 162 165 177 175 186 148 11 13 349 11 346 338 330 329 325 338 315 312 316 312 312 310 307 325 328 333 350 351 343 345 337
171 166 160 156 172 166 167 162 151 145 140 144 142 145 126 145 143 123 47 15 357 9 23 1 338 333 325 332 312 310 311 311 322 331 337 337 352 351 341 338 335 340 344
167 163 162 165 166 162 157 149 142 140 138 129 113 115 128 138 139 129 116 101 58 349 338 355 320 326 318 312 310 295 309 314 348 356 343 358 353 347 340 338 339 337 342
163 157 158 156 156 157 156 153 151 149 139 133 126 121 123 141 152 167 176 195 277 307 330 68 311 314 302 304 306 322 316 305 62 350 353 340 346 345 348 349 354 351 342
160 158 156 154 154 152 149 153 146 147 146 145 142 134 131 123 98 61 55 296 319 339 131 349 306 308 295 327 333 308 334 321 275 341 341 343 353 349 353 357 355 356 347
155 154 152 154 152 148 143 139 137 141 148 164 178 141 88 54 2 328 329 322 27 38 71 49 346 315 319 346 357 355 336 340 331 3 337 341 347 347 354 355 353 343 347
150 149 151 151 154 153 157 159 165 170 173 173 145 131 77 70 76 81 69 72 71 81 72 52 17 7 2 350 351 1 347 351 343 331 332 344 345 346 351 354 352 348 348
145 157 152 153 161 162 173 178 177 180 167 141 127 117 106 91 78 81 81 71 68 58 57 45 30 16 15 6 9 356 0 333 10 312 330 339 345 347 352 350 352 346 347
154 154 146 155 151 163 175 169 171 160 145 129 124 122 116 103 93 81 67 59 58 53 48 42 36 32 33 26 17 21 15 10 2 355 336 338 332 345 353 356 354 350 347